EW4496 Weather Reports


time (UTC)temp
F
wind
direction
speed
knots
gust
knots
rain 1hr
in
rain 24hr
in
rain mn
in
humidity
%
barometer
mb
20260510031606 74 304 0.0 0.9 0.00 0.00 0.00 61 1010.0
20260510030106 76 276 0.0 0.0 0.00 0.00 0.00 59 1009.9
20260510024605 78 298 0.0 0.9 0.00 0.00 0.00 56 1009.8
20260510023014 80 301 0.0 0.9 0.00 0.00 0.00 54 1009.7
20260510021652 81 302 0.0 0.0 0.00 0.00 0.00 54 1009.7
20260510020106 82 321 0.0 4.3 0.00 0.00 0.00 51 1009.7
20260510014606 84 320 0.0 4.3 0.00 0.00 0.00 50 1009.7
20260510013100 85 309 0.0 3.5 0.00 0.00 0.00 47 1009.7
20260510011551 86 349 0.0 5.2 0.00 0.00 0.00 45 1009.7
20260510010057 88 293 0.0 2.6 0.00 0.00 0.00 43 1009.7
20260510004550 88 288 0.0 5.2 0.00 0.00 0.00 42 1009.7
20260510003052 89 233 0.0 1.7 0.00 0.00 0.00 39 1009.7
20260510001536 89 281 0.0 3.5 0.00 0.00 0.00 40 1009.8
20260510000036 89 338 0.0 6.1 0.00 0.00 0.00 40 1009.8
20260509234536 90 328 0.0 0.9 0.00 0.00 0.00 39 1009.9
20260509233036 90 7 0.0 0.9 0.00 0.00 0.00 34 1010.0
20260509231541 90 6 0.0 2.6 0.00 0.00 0.00 34 1010.1
20260509230053 89 331 0.0 0.0 0.00 0.00 0.00 36 1010.2
20260509224550 89 20 0.0 0.9 0.00 0.00 0.00 33 1010.4
20260509223053 88 18 0.0 2.6 0.00 0.00 0.00 36 1010.6
20260509221550 88 314 0.9 5.2 0.00 0.00 0.00 36 1010.8
20260509220051 87 359 0.0 2.6 0.00 0.00 0.00 39 1010.9
20260509214550 87 357 0.0 3.5 0.00 0.00 0.00 38 1011.0
20260509213105 87 308 0.0 3.5 0.00 0.00 0.00 40 1011.3
20260509211557 86 11 0.0 1.7 0.00 0.00 0.00 44 1011.4
20260509210052 85 338 0.0 2.6 0.00 0.00 0.00 48 1011.5
20260509204549 84 19 0.0 0.9 0.00 0.00 0.00 50 1011.7
20260509203050 85 56 0.0 4.3 0.00 0.00 0.00 49 1011.9
20260509201550 83 199 0.0 3.5 0.00 0.00 0.00 53 1012.0
20260509200053 83 232 0.0 1.7 0.00 0.00 0.00 52 1012.1
20260509194557 82 322 0.0 3.5 0.00 0.00 0.00 53 1012.3
20260509193050 80 305 0.0 0.0 0.00 0.00 0.00 56 1012.5
20260509191604 80 189 0.0 1.7 0.00 0.00 0.00 55 1012.7
20260509190050 79 94 0.0 1.7 0.00 0.00 0.00 55 1013.0
20260509184558 78 182 0.0 1.7 0.00 0.00 0.00 57 1013.2
20260509183054 76 299 0.0 1.7 0.00 0.00 0.00 60 1013.3
20260509181553 76 335 0.0 0.9 0.00 0.00 0.00 60 1013.4
20260509180058 75 5 0.0 0.9 0.00 0.00 0.00 61 1013.5
20260509174549 73 311 0.0 0.9 0.00 0.00 0.00 63 1013.5
20260509173102 72 303 0.0 1.7 0.00 0.00 0.00 63 1013.5
20260509171550 71 307 0.0 0.9 0.00 0.00 0.00 65 1013.5
20260509170049 70 219 0.0 0.0 0.00 0.00 0.00 67 1013.7
20260509164548 69 292 0.0 0.0 0.00 0.00 0.00 69 1013.6
20260509163052 68 318 0.0 0.9 0.00 0.00 0.00 69 1013.7
20260509161558 67 176 0.0 0.0 0.00 0.00 0.00 70 1013.7
20260509160021 65 335 0.0 0.0 0.00 0.00 0.00 73 1013.8
20260509154518 64 192 0.0 0.0 0.00 0.00 0.00 74 1013.7
20260509153031 63 216 0.0 0.0 0.00 0.00 0.00 75 1013.7
20260509151518 62 236 0.0 0.9 0.00 0.00 0.00 76 1013.6
20260509150020 61 294 0.0 0.9 0.00 0.00 0.00 78 1013.7
20260509144518 61 298 0.0 0.9 0.00 0.00 0.00 79 1013.8
20260509143019 59 244 0.0 0.0 0.00 0.00 0.00 81 1013.7
20260509141524 58 240 0.0 0.0 0.00 0.00 0.00 83 1013.6
20260509140018 57 217 0.0 0.0 0.00 0.00 0.00 86 1013.6
20260509134533 55 269 0.0 0.0 0.00 0.00 0.00 88 1013.6
20260509133035 54 270 0.0 0.0 0.00 0.00 0.00 90 1013.6
20260509131533 54 271 0.0 0.0 0.00 0.00 0.00 89 1013.4
20260509130034 54 273 0.0 0.0 0.00 0.00 0.00 90 1013.4
20260509124552 53 273 0.0 0.0 0.00 0.00 0.00 90 1013.2
20260509123048 53 273 0.0 0.0 0.00 0.00 0.00 91 1013.1
20260509121550 53 273 0.0 0.0 0.00 0.00 0.00 92 1013.1
20260509120050 53 273 0.0 0.0 0.00 0.00 0.00 91 1013.2
20260509114602 53 273 0.0 0.0 0.00 0.00 0.00 91 1013.2
20260509113102 54 250 0.0 0.0 0.00 0.00 0.00 90 1013.1
20260509111603 55 250 0.0 0.0 0.00 0.00 0.00 89 1013.1
20260509104504 55 198 0.0 0.0 0.00 0.00 0.00 88 1013.0
20260509103004 55 228 0.0 0.0 0.00 0.00 0.00 88 1013.0
20260509101505 56 232 0.0 0.0 0.00 0.00 0.00 88 1013.2
20260509100002 56 227 0.0 0.0 0.00 0.00 0.00 87 1013.2
20260509094517 57 225 0.0 0.0 0.00 0.00 0.00 87 1013.2
20260509093017 57 225 0.0 0.0 0.00 0.00 0.00 88 1013.2
20260509091519 57 224 0.0 0.0 0.00 0.00 0.00 88 1013.3
20260509090028 58 224 0.0 0.0 0.00 0.00 0.00 87 1013.3
20260509084527 57 241 0.0 0.0 0.00 0.00 0.00 88 1013.4
20260509083032 57 241 0.0 0.0 0.00 0.00 0.00 88 1013.5
20260509081531 58 241 0.0 0.0 0.00 0.00 0.00 86 1013.6
20260509080035 58 241 0.0 0.0 0.00 0.00 0.00 86 1013.6
20260509074536 58 241 0.0 0.0 0.00 0.00 0.00 86 1013.7
20260509073103 58 241 0.0 0.0 0.00 0.00 0.00 86 1013.7
20260509071555 58 241 0.0 0.0 0.00 0.00 0.00 86 1013.5
20260509070048 59 235 0.0 0.0 0.00 0.00 0.00 86 1013.4
20260509064546 60 238 0.0 0.0 0.00 0.00 0.00 85 1013.5
20260509063105 61 235 0.0 0.0 0.00 0.00 0.00 84 1013.5
20260509061601 62 233 0.0 0.0 0.00 0.00 0.00 84 1013.6
20260509060118 62 179 0.0 0.0 0.00 0.00 0.00 84 1013.6
20260509054601 63 256 0.0 0.0 0.00 0.00 0.00 82 1013.5
20260509053118 63 223 0.0 0.0 0.00 0.00 0.00 80 1013.5
20260509051613 63 328 0.0 0.0 0.00 0.00 0.00 80 1013.4
20260509050107 64 328 0.0 0.0 0.00 0.00 0.00 78 1013.4
20260509044608 65 327 0.0 0.0 0.00 0.00 0.00 78 1013.3
20260509043101 67 327 0.0 0.0 0.00 0.00 0.00 77 1013.2
20260509041601 68 328 0.0 0.0 0.00 0.00 0.00 74 1013.1
20260509040110 68 336 0.0 0.9 0.00 0.00 0.00 72 1012.8
20260509034605 69 337 0.0 0.0 0.00 0.00 0.00 72 1012.7
20260509033134 70 319 0.0 0.0 0.00 0.00 0.00 69 1012.7